TimeCST,TemperatureF,Dew PointF,Humidity,Sea Level PressureIn,VisibilityMPH,Wind Direction,Wind SpeedMPH,Gust SpeedMPH,PrecipitationIn,Events,Conditions,WindDirDegrees,DateUTC
12:04 AM,28.4,23.0,80,30.31,2.5,Calm,Calm,-,N/A,,Haze,0,2012-12-05 06:04:00
12:32 AM,28.4,23.0,80,30.31,3.0,Calm,Calm,-,N/A,,Haze,0,2012-12-05 06:32:00
12:52 AM,28.0,23.0,81,30.33,2.5,Calm,Calm,-,N/A,,Haze,0,2012-12-05 06:52:00
12:59 AM,26.6,21.2,80,30.31,3.0,Calm,Calm,-,N/A,,Clear,0,2012-12-05 06:59:00
1:52 AM,27.0,21.9,81,30.32,3.0,Calm,Calm,-,N/A,,Haze,0,2012-12-05 07:52:00
2:52 AM,28.0,24.1,85,30.32,4.0,Calm,Calm,-,N/A,,Clear,0,2012-12-05 08:52:00
3:52 AM,27.0,23.0,85,30.32,5.0,Calm,Calm,-,N/A,,Clear,0,2012-12-05 09:52:00
4:52 AM,27.0,23.0,85,30.31,4.0,Calm,Calm,-,N/A,,Clear,0,2012-12-05 10:52:00
5:52 AM,26.1,21.9,84,30.32,4.0,Calm,Calm,-,N/A,,Clear,0,2012-12-05 11:52:00
6:52 AM,24.1,21.0,88,30.32,10.0,Calm,Calm,-,N/A,,Smoke,0,2012-12-05 12:52:00
8:52 AM,33.1,27.0,78,30.29,10.0,Calm,Calm,-,N/A,,Clear,0,2012-12-05 14:52:00
9:52 AM,48.0,32.0,54,30.28,10.0,South,3.5,-,N/A,,Clear,190,2012-12-05 15:52:00
10:52 AM,55.0,28.9,37,30.27,10.0,SSW,9.2,-,N/A,,Clear,200,2012-12-05 16:52:00
11:52 AM,57.9,27.0,31,30.22,10.0,South,9.2,19.6,N/A,,Clear,190,2012-12-05 17:52:00
12:52 PM,62.1,24.1,23,30.18,10.0,SSW,16.1,20.7,N/A,,Clear,200,2012-12-05 18:52:00
1:52 PM,62.1,21.0,21,30.13,10.0,South,15.0,20.7,N/A,,Clear,190,2012-12-05 19:52:00
2:52 PM,63.0,21.9,21,30.09,10.0,South,18.4,26.5,N/A,,Clear,190,2012-12-05 20:52:00
3:52 PM,61.0,21.9,22,30.08,10.0,South,16.1,-,N/A,,Clear,180,2012-12-05 21:52:00
4:52 PM,57.0,21.9,26,30.06,10.0,South,11.5,-,N/A,,Clear,180,2012-12-05 22:52:00
5:52 PM,54.0,21.9,29,30.04,7.0,South,9.2,-,N/A,,Clear,170,2012-12-05 23:52:00
6:52 PM,52.0,23.0,32,30.03,10.0,South,6.9,-,N/A,,Clear,190,2012-12-06 00:52:00
7:52 PM,51.1,24.1,35,30.03,10.0,South,10.4,-,N/A,,Clear,180,2012-12-06 01:52:00
8:52 PM,50.0,25.0,38,30.00,10.0,South,11.5,-,N/A,,Clear,180,2012-12-06 02:52:00
9:52 PM,50.0,26.1,39,29.99,10.0,South,8.1,-,N/A,,Clear,190,2012-12-06 03:52:00